Lambertville, MI

11:31 AM EDT on July 20, 2017 (GMT -0400)
Lambertville

Weather History for KDUH - October, 2013

Change the Weather History Date:

Thursday, October 3, 2013

  Actual Average (KTOL) Record (KTOL)
Temperature  
Mean Temperature 70 °F -  
Max Temperature 80 °F 69 °F 90 °F (1953)
Min Temperature 59 °F 45 °F 23 °F (1974)
Cooling Degree Days 4    
Growing Degree Days 20 (Base 50)    
Moisture  
Dew Point 62 °F    
Average Humidity 82    
Maximum Humidity 94    
Minimum Humidity 58    
Precipitation  
Precipitation 0.00 in - - ()
Sea Level Pressure  
Sea Level Pressure 30.01 in    
Wind  
Wind Speed 1 mph (SSW)    
Max Wind Speed 8 mph    
Max Gust Speed -    
Visibility 8 miles    
Events Rain    
Averages and records for this station are not official NWS values.
T = Trace of Precipitation, MM = Missing Value Source: NWS Daily Summary

Daily Weather History Graph

Daily Weather History Graph

Search for Another Location

Airport or City:

Trip Planner

Search our weather history database for the weather conditions in past years. The results will help you decide how hot, cold, wet, or windy it might be!

Date:

Astronomy

Oct. 03, 2013 Rise Set
Actual Time 7:33 AM EDT 7:12 PM EDT
Civil Twilight 7:06 AM EDT 7:40 PM EDT
Nautical Twilight 6:33 AM EDT 8:12 PM EDT
Astronomical Twilight 6:01 AM EDT 8:44 PM EDT
Moon 6:05 AM EDT (10/3) 6:20 PM EDT (10/3)
Length of Visible Light 12h 34m
Length of Day
11h 38m
Waning Crescent, 2% of the Moon is Illuminated
Oct 3
Waning Crescent
Oct 4
New
Oct 11
First Quarter
Oct 18
Full
Oct 26
Last Quarter

Hourly Weather History & Observations

Time (EDT) Temp. Heat Index Dew Point Humidity Pressure Visibility Wind Dir Wind Speed Gust Speed Precip Events Conditions
12:15 AM 62.6 °F - 57.2 °F 82% 30.07 in 10.0 mi Calm Calm - N/A   Overcast
12:35 AM 62.6 °F - 57.2 °F 82% 30.07 in 10.0 mi Calm Calm - N/A   Mostly Cloudy
12:55 AM 60.8 °F - 55.4 °F 82% 30.06 in 10.0 mi Calm Calm - N/A   Mostly Cloudy
1:15 AM 60.8 °F - 55.4 °F 82% 30.05 in 10.0 mi Calm Calm - N/A   Scattered Clouds
1:35 AM 59.0 °F - 55.4 °F 88% 30.05 in 10.0 mi Calm Calm - N/A   Scattered Clouds
1:55 AM 60.8 °F - 55.4 °F 82% 30.05 in 10.0 mi East 3.5 mph - N/A   Scattered Clouds
2:15 AM 59.0 °F - 55.4 °F 88% 30.04 in 10.0 mi Calm Calm - N/A   Clear
2:35 AM 60.8 °F - 55.4 °F 82% 30.04 in 10.0 mi ESE 3.5 mph - N/A   Scattered Clouds
2:55 AM 59.0 °F - 55.4 °F 88% 30.04 in 10.0 mi Calm Calm - N/A   Clear
3:15 AM 59.0 °F - 55.4 °F 88% 30.03 in 10.0 mi Calm Calm - N/A   Clear
3:35 AM 59.0 °F - 55.4 °F 88% 30.03 in 10.0 mi Calm Calm - N/A   Clear
3:55 AM 59.0 °F - 55.4 °F 88% 30.03 in 10.0 mi Calm Calm - N/A   Mostly Cloudy
4:15 AM 59.0 °F - 55.4 °F 88% 30.03 in 10.0 mi Calm Calm - N/A   Scattered Clouds
4:35 AM 59.0 °F - 55.4 °F 88% 30.03 in 10.0 mi Calm Calm - N/A   Scattered Clouds
4:55 AM 59.0 °F - 55.4 °F 88% 30.03 in 7.0 mi Calm Calm - N/A   Clear
5:15 AM 59.0 °F - 55.4 °F 88% 30.04 in 7.0 mi Calm Calm - N/A   Clear
5:35 AM 59.0 °F - 55.4 °F 88% 30.03 in 7.0 mi Calm Calm - N/A   Scattered Clouds
5:55 AM 59.0 °F - 55.4 °F 88% 30.04 in 7.0 mi Calm Calm - N/A   Mostly Cloudy
6:15 AM 60.8 °F - 57.2 °F 88% 30.04 in 7.0 mi Calm Calm - N/A   Overcast
6:35 AM 60.8 °F - 59.0 °F 94% 30.04 in 7.0 mi Calm Calm - N/A   Mostly Cloudy
6:55 AM 60.8 °F - 59.0 °F 94% 30.03 in 7.0 mi Calm Calm - N/A   Mostly Cloudy
7:15 AM 60.8 °F - 59.0 °F 94% 30.03 in 7.0 mi Calm Calm - N/A   Scattered Clouds
7:35 AM 60.8 °F - 59.0 °F 94% 30.03 in 7.0 mi Calm Calm - N/A   Clear
7:55 AM 60.8 °F - 59.0 °F 94% 30.04 in 5.0 mi Calm Calm - N/A   Clear
8:15 AM 60.8 °F - 59.0 °F 94% 30.03 in 5.0 mi Calm Calm - N/A   Scattered Clouds
8:35 AM 60.8 °F - 59.0 °F 94% 30.03 in 5.0 mi Calm Calm - N/A   Scattered Clouds
8:55 AM 64.4 °F - 60.8 °F 88% 30.03 in 5.0 mi Calm Calm - N/A   Scattered Clouds
9:15 AM 66.2 °F - 60.8 °F 83% 30.04 in 7.0 mi Calm Calm - N/A   Mostly Cloudy
9:35 AM 68.0 °F - 60.8 °F 78% 30.05 in 5.0 mi Calm Calm - N/A   Haze
9:55 AM 68.0 °F - 62.6 °F 83% 30.05 in 5.0 mi Calm Calm - N/A   Haze
10:15 AM 69.8 °F - 62.6 °F 78% 30.05 in 5.0 mi Calm Calm - N/A   Haze
10:35 AM 69.8 °F - 62.6 °F 78% 30.05 in 5.0 mi Calm Calm - N/A   Haze
10:55 AM 69.8 °F - 62.6 °F 78% 30.04 in 5.0 mi Calm Calm - N/A   Haze
11:15 AM 71.6 °F - 64.4 °F 78% 30.04 in 5.0 mi Calm Calm - N/A   Haze
11:35 AM 71.6 °F - 64.4 °F 78% 30.05 in 4.0 mi SSW 3.5 mph - N/A Rain Rain
11:55 AM 69.8 °F - 64.4 °F 83% 30.04 in 1.0 mi Calm Calm - N/A Rain Heavy Rain
12:15 PM 69.8 °F - 66.2 °F 88% 30.05 in 2.5 mi Calm Calm - N/A Rain Light Rain
12:35 PM 69.8 °F - 66.2 °F 88% 30.04 in 5.0 mi Calm Calm - N/A   Overcast
12:55 PM 69.8 °F - 66.2 °F 88% 30.04 in 5.0 mi Calm Calm - N/A   Overcast
1:15 PM 71.6 °F - 68.0 °F 88% 30.03 in 5.0 mi SSW 4.6 mph - N/A   Haze
1:35 PM 73.4 °F - 68.0 °F 83% 30.02 in 5.0 mi SW 5.8 mph - N/A   Haze
1:55 PM 73.4 °F - 68.0 °F 83% 30.01 in 5.0 mi SSW 4.6 mph - N/A   Haze
2:15 PM 75.2 °F - 68.0 °F 78% 30.00 in 7.0 mi SSW 4.6 mph - N/A   Scattered Clouds
2:35 PM 77.0 °F - 68.0 °F 74% 29.99 in 10.0 mi SW 6.9 mph - N/A   Scattered Clouds
2:55 PM 77.0 °F - 68.0 °F 74% 29.98 in 7.0 mi WSW 4.6 mph - N/A   Scattered Clouds
3:15 PM 77.0 °F - 64.4 °F 65% 29.98 in 10.0 mi West 8.1 mph - N/A   Clear
3:35 PM 77.0 °F - 64.4 °F 65% 29.98 in 10.0 mi West 8.1 mph - N/A   Clear
3:55 PM 80.6 °F 82.3 °F 64.4 °F 58% 29.98 in 10.0 mi WSW 5.8 mph - N/A   Clear
4:15 PM 80.6 °F 82.3 °F 64.4 °F 58% 29.97 in 10.0 mi WSW 8.1 mph - N/A   Scattered Clouds
4:35 PM 78.8 °F - 64.4 °F 61% 29.97 in 10.0 mi WSW 6.9 mph - N/A   Clear
4:55 PM 77.0 °F - 64.4 °F 65% 29.97 in 10.0 mi SW 4.6 mph - N/A   Scattered Clouds
5:15 PM 77.0 °F - 66.2 °F 69% 29.96 in 10.0 mi SSW 4.6 mph - N/A   Scattered Clouds
5:35 PM 77.0 °F - 66.2 °F 69% 29.95 in 10.0 mi South 4.6 mph - N/A   Clear
5:55 PM 77.0 °F - 66.2 °F 69% 29.96 in 10.0 mi SSW 4.6 mph - N/A   Clear
6:15 PM 77.0 °F - 66.2 °F 69% 29.96 in 10.0 mi SSW 3.5 mph - N/A   Mostly Cloudy
6:35 PM 75.2 °F - 66.2 °F 73% 29.96 in 10.0 mi Calm Calm - N/A   Scattered Clouds
6:55 PM 73.4 °F - 66.2 °F 78% 29.96 in 10.0 mi South 3.5 mph - N/A   Scattered Clouds
7:15 PM 73.4 °F - 66.2 °F 78% 29.96 in 10.0 mi Calm Calm - N/A   Scattered Clouds
7:35 PM 73.4 °F - 66.2 °F 78% 29.96 in 10.0 mi Calm Calm - N/A   Clear
7:55 PM 71.6 °F - 64.4 °F 78% 29.96 in 7.0 mi Calm Calm - N/A   Clear
8:15 PM 68.0 °F - 64.4 °F 88% 29.97 in 10.0 mi Calm Calm - N/A   Clear
8:35 PM 68.0 °F - 64.4 °F 88% 29.98 in 10.0 mi Calm Calm - N/A   Clear
8:55 PM 68.0 °F - 64.4 °F 88% 29.98 in 10.0 mi Calm Calm - N/A   Scattered Clouds
9:15 PM 68.0 °F - 64.4 °F 88% 29.98 in 7.0 mi Calm Calm - N/A   Scattered Clouds
9:35 PM 66.2 °F - 62.6 °F 88% 29.99 in 7.0 mi Calm Calm - N/A   Clear
9:55 PM 66.2 °F - 62.6 °F 88% 29.99 in 7.0 mi Calm Calm - N/A   Clear
10:15 PM 68.0 °F - 64.4 °F 88% 29.99 in 10.0 mi SSE 3.5 mph - N/A   Clear
10:35 PM 68.0 °F - 64.4 °F 88% 29.99 in 10.0 mi South 3.5 mph - N/A   Clear
10:55 PM 69.8 °F - 64.4 °F 83% 30.00 in 10.0 mi South 4.6 mph - N/A   Clear
11:15 PM 69.8 °F - 64.4 °F 83% 30.00 in 10.0 mi South 5.8 mph - N/A   Clear
11:35 PM 69.8 °F - 64.4 °F 83% 30.00 in 10.0 mi South 6.9 mph - N/A   Clear